| time (UTC) | temp C | wind direction | speed KPH | gust KPH | rain 1hr cm | rain 24hr cm | rain mn cm | humidity % | barometer mb |
| 20260503072059 | 8 | 136 | 1.6 | 1.6 | 0.00 | 0.00 | 0.00 | 52 | 1010.6 |
| 20260503071556 | 8 | 196 | 0.0 | 1.6 | 0.00 | 0.00 | 0.00 | 51 | 1010.6 |
| 20260503071053 | 8 | 143 | 1.6 | 3.2 | 0.00 | 0.00 | 0.00 | 52 | 1010.6 |
| 20260503070549 | 8 | 115 | 1.6 | 1.6 | 0.00 | 0.00 | 0.00 | 51 | 1010.6 |
| 20260503055009 | 8 | 149 | 0.0 | 0.0 | 0.00 | 0.00 | 0.00 | 49 | 1011.4 |
| 20260503054505 | 9 | 200 | 0.0 | 0.0 | 0.00 | 0.00 | 0.00 | 48 | 1011.5 |
| 20260503054003 | 9 | 193 | 1.6 | 3.2 | 0.00 | 0.00 | 0.00 | 49 | 1011.3 |
| 20260503053500 | 9 | 202 | 1.6 | 1.6 | 0.00 | 0.00 | 0.00 | 48 | 1011.4 |
| 20260503052957 | 9 | 179 | 1.6 | 1.6 | 0.00 | 0.00 | 0.00 | 48 | 1011.4 |
| 20260503052454 | 10 | 129 | 1.6 | 3.2 | 0.00 | 0.00 | 0.00 | 48 | 1011.3 |
| 20260503051950 | 10 | 224 | 1.6 | 1.6 | 0.00 | 0.00 | 0.00 | 47 | 1011.2 |
| 20260503051446 | 9 | 4 | 1.6 | 3.2 | 0.00 | 0.00 | 0.00 | 47 | 1011.5 |
| 20260503050944 | 10 | 101 | 0.0 | 0.0 | 0.00 | 0.00 | 0.00 | 47 | 1011.5 |
| 20260503050439 | 10 | 149 | 3.2 | 4.8 | 0.00 | 0.00 | 0.00 | 46 | 1011.6 |
| 20260503045937 | 10 | 187 | 4.8 | 6.4 | 0.00 | 0.00 | 0.00 | 46 | 1011.4 |
| 20260503045435 | 10 | 226 | 3.2 | 3.2 | 0.00 | 0.00 | 0.00 | 46 | 1011.5 |
| 20260503044931 | 10 | 193 | 0.0 | 1.6 | 0.00 | 0.00 | 0.00 | 46 | 1011.6 |
| 20260503044428 | 10 | 167 | 3.2 | 4.8 | 0.00 | 0.00 | 0.00 | 45 | 1011.6 |
| 20260503043926 | 10 | 134 | 3.2 | 3.2 | 0.00 | 0.00 | 0.00 | 45 | 1011.7 |
| 20260503043422 | 10 | 161 | 1.6 | 3.2 | 0.00 | 0.00 | 0.00 | 44 | 1011.7 |
| 20260503042918 | 10 | 168 | 4.8 | 6.4 | 0.00 | 0.00 | 0.00 | 44 | 1011.8 |
| 20260503042415 | 10 | 170 | 0.0 | 0.0 | 0.00 | 0.00 | 0.00 | 44 | 1011.8 |
| 20260503041912 | 10 | 173 | 1.6 | 3.2 | 0.00 | 0.00 | 0.00 | 44 | 1011.9 |
| 20260503041409 | 10 | 140 | 0.0 | 1.6 | 0.00 | 0.00 | 0.00 | 44 | 1012.0 |
| 20260503040906 | 10 | 159 | 0.0 | 0.0 | 0.00 | 0.00 | 0.00 | 44 | 1012.0 |
| 20260503040404 | 9 | 141 | 4.8 | 4.8 | 0.00 | 0.00 | 0.00 | 43 | 1012.1 |
| 20260503035900 | 10 | 121 | 0.0 | 0.0 | 0.00 | 0.00 | 0.00 | 45 | 1012.1 |
| 20260503035357 | 10 | 162 | 4.8 | 4.8 | 0.00 | 0.00 | 0.00 | 43 | 1012.0 |
| 20260503034854 | 10 | 221 | 1.6 | 1.6 | 0.00 | 0.00 | 0.00 | 43 | 1012.1 |
| 20260503034352 | 10 | 140 | 1.6 | 1.6 | 0.00 | 0.00 | 0.00 | 43 | 1012.3 |
| 20260503033849 | 10 | 153 | 0.0 | 1.6 | 0.00 | 0.00 | 0.00 | 43 | 1012.5 |
| 20260503033346 | 10 | 164 | 3.2 | 4.8 | 0.00 | 0.00 | 0.00 | 42 | 1012.4 |
| 20260503032844 | 10 | 191 | 1.6 | 1.6 | 0.00 | 0.00 | 0.00 | 43 | 1012.4 |
| 20260503032343 | 10 | 146 | 4.8 | 4.8 | 0.00 | 0.00 | 0.00 | 43 | 1012.5 |
| 20260503031840 | 10 | 142 | 0.0 | 1.6 | 0.00 | 0.00 | 0.00 | 43 | 1012.5 |
| 20260503031338 | 10 | 168 | 0.0 | 0.0 | 0.00 | 0.00 | 0.00 | 42 | 1012.5 |
| 20260503030834 | 10 | 128 | 1.6 | 1.6 | 0.00 | 0.00 | 0.00 | 42 | 1012.5 |
| 20260503030330 | 10 | 159 | 3.2 | 3.2 | 0.00 | 0.00 | 0.00 | 41 | 1012.8 |
| 20260503025827 | 10 | 147 | 0.0 | 0.0 | 0.00 | 0.00 | 0.00 | 41 | 1012.8 |
| 20260503025325 | 10 | 160 | 0.0 | 0.0 | 0.00 | 0.00 | 0.00 | 41 | 1012.9 |
| 20260503024821 | 10 | 208 | 1.6 | 3.2 | 0.00 | 0.00 | 0.00 | 41 | 1012.7 |
| 20260503024318 | 10 | 151 | 1.6 | 1.6 | 0.00 | 0.00 | 0.00 | 42 | 1012.8 |
| 20260503023815 | 10 | 142 | 1.6 | 1.6 | 0.00 | 0.00 | 0.00 | 41 | 1012.7 |
| 20260503023312 | 10 | 168 | 1.6 | 3.2 | 0.00 | 0.00 | 0.00 | 40 | 1012.4 |
| 20260503022808 | 10 | 130 | 1.6 | 1.6 | 0.00 | 0.00 | 0.00 | 40 | 1012.8 |
| 20260503022304 | 10 | 151 | 0.0 | 1.6 | 0.00 | 0.00 | 0.00 | 40 | 1012.7 |
| 20260503021800 | 10 | 141 | 0.0 | 1.6 | 0.00 | 0.00 | 0.00 | 41 | 1012.8 |
| 20260503021256 | 11 | 169 | 1.6 | 1.6 | 0.00 | 0.00 | 0.00 | 40 | 1012.8 |
| 20260503020754 | 11 | 172 | 0.0 | 1.6 | 0.00 | 0.00 | 0.00 | 40 | 1012.8 |
| 20260503020251 | 11 | 177 | 0.0 | 1.6 | 0.00 | 0.00 | 0.00 | 40 | 1012.8 |
| 20260503015747 | 11 | 162 | 1.6 | 1.6 | 0.00 | 0.00 | 0.00 | 39 | 1012.7 |
| 20260503015244 | 11 | 139 | 1.6 | 1.6 | 0.00 | 0.00 | 0.00 | 39 | 1012.4 |
| 20260503014739 | 11 | 159 | 0.0 | 1.6 | 0.00 | 0.00 | 0.00 | 40 | 1012.5 |
| 20260503014238 | 11 | 182 | 0.0 | 0.0 | 0.00 | 0.00 | 0.00 | 40 | 1012.5 |
| 20260503013735 | 11 | 196 | 0.0 | 0.0 | 0.00 | 0.00 | 0.00 | 39 | 1012.7 |
| 20260503013232 | 11 | 184 | 0.0 | 0.0 | 0.00 | 0.00 | 0.00 | 39 | 1012.4 |
| 20260503012730 | 11 | 184 | 0.0 | 1.6 | 0.00 | 0.00 | 0.00 | 38 | 1012.3 |
| 20260503012226 | 11 | 181 | 1.6 | 1.6 | 0.00 | 0.00 | 0.00 | 38 | 1012.3 |
| 20260503011723 | 11 | 201 | 0.0 | 1.6 | 0.00 | 0.00 | 0.00 | 39 | 1012.5 |
| 20260503011220 | 11 | 173 | 0.0 | 0.0 | 0.00 | 0.00 | 0.00 | 39 | 1012.8 |
| 20260503010716 | 11 | 193 | 0.0 | 0.0 | 0.00 | 0.00 | 0.00 | 39 | 1012.7 |
| 20260503010213 | 12 | 181 | 0.0 | 0.0 | 0.00 | 0.00 | 0.00 | 37 | 1012.5 |
| 20260503005711 | 12 | 175 | 0.0 | 0.0 | 0.00 | 0.00 | 0.00 | 37 | 1012.3 |
| 20260503005208 | 12 | 203 | 0.0 | 1.6 | 0.00 | 0.00 | 0.00 | 37 | 1012.8 |
| 20260503004704 | 12 | 186 | 0.0 | 1.6 | 0.00 | 0.00 | 0.00 | 37 | 1012.4 |
| 20260503004202 | 12 | 183 | 0.0 | 0.0 | 0.00 | 0.00 | 0.00 | 38 | 1012.3 |
| 20260503003659 | 12 | 231 | 1.6 | 1.6 | 0.00 | 0.00 | 0.00 | 36 | 1012.5 |
| 20260503003156 | 13 | 189 | 0.0 | 0.0 | 0.00 | 0.00 | 0.00 | 36 | 1012.4 |
| 20260503002653 | 13 | 170 | 1.6 | 1.6 | 0.00 | 0.00 | 0.00 | 37 | 1012.5 |
| 20260503002150 | 13 | 170 | 0.0 | 0.0 | 0.00 | 0.00 | 0.00 | 37 | 1012.5 |
| 20260503001646 | 13 | 8 | 1.6 | 1.6 | 0.00 | 0.00 | 0.00 | 35 | 1012.7 |
| 20260503001143 | 13 | 164 | 3.2 | 4.8 | 0.00 | 0.00 | 0.00 | 35 | 1012.5 |
| 20260503000641 | 13 | 229 | 0.0 | 1.6 | 0.00 | 0.00 | 0.00 | 38 | 1012.7 |
| 20260503000137 | 13 | 253 | 1.6 | 1.6 | 0.00 | 0.00 | 0.00 | 36 | 1012.4 |
| 20260502235634 | 14 | 181 | 0.0 | 0.0 | 0.00 | 0.00 | 0.00 | 35 | 1012.8 |
| 20260502235132 | 14 | 271 | 1.6 | 3.2 | 0.00 | 0.00 | 0.00 | 34 | 1012.9 |
| 20260502234628 | 14 | 160 | 1.6 | 1.6 | 0.00 | 0.00 | 0.00 | 36 | 1012.8 |
| 20260502234126 | 14 | 271 | 1.6 | 3.2 | 0.00 | 0.00 | 0.00 | 33 | 1012.9 |
| 20260502233621 | 14 | 207 | 1.6 | 1.6 | 0.00 | 0.00 | 0.00 | 34 | 1013.0 |
| 20260502233118 | 14 | 321 | 6.4 | 11.3 | 0.00 | 0.00 | 0.00 | 33 | 1013.1 |
| 20260502232614 | 14 | 340 | 6.4 | 11.3 | 0.00 | 0.00 | 0.00 | 32 | 1013.1 |
| 20260502232112 | 14 | 243 | 6.4 | 6.4 | 0.00 | 0.00 | 0.00 | 33 | 1013.2 |
| 20260502231608 | 14 | 165 | 1.6 | 1.6 | 0.00 | 0.00 | 0.00 | 35 | 1013.2 |
| 20260502231106 | 15 | 226 | 4.8 | 6.4 | 0.00 | 0.00 | 0.00 | 32 | 1013.1 |
| 20260502230604 | 15 | 237 | 3.2 | 3.2 | 0.00 | 0.00 | 0.00 | 31 | 1013.2 |
| 20260502225557 | 15 | 75 | 3.2 | 4.8 | 0.00 | 0.00 | 0.00 | 33 | 1013.1 |
| 20260502225055 | 15 | 126 | 0.0 | 0.0 | 0.00 | 0.00 | 0.00 | 32 | 1013.3 |
| 20260502224551 | 15 | 181 | 0.0 | 0.0 | 0.00 | 0.00 | 0.00 | 31 | 1013.2 |
| 20260502224048 | 15 | 48 | 1.6 | 1.6 | 0.00 | 0.00 | 0.00 | 32 | 1013.3 |
| 20260502223546 | 15 | 179 | 1.6 | 3.2 | 0.00 | 0.00 | 0.00 | 31 | 1013.4 |
| 20260502223044 | 15 | 333 | 4.8 | 4.8 | 0.00 | 0.00 | 0.00 | 32 | 1013.4 |
| 20260502222541 | 15 | 74 | 3.2 | 4.8 | 0.00 | 0.00 | 0.00 | 32 | 1013.3 |
| 20260502222037 | 15 | 108 | 1.6 | 1.6 | 0.00 | 0.00 | 0.00 | 32 | 1013.4 |
| 20260502221533 | 15 | 154 | 4.8 | 4.8 | 0.00 | 0.00 | 0.00 | 32 | 1013.8 |
| 20260502221031 | 16 | 317 | 3.2 | 3.2 | 0.00 | 0.00 | 0.00 | 34 | 1013.6 |
| 20260502220526 | 15 | 228 | 3.2 | 3.2 | 0.00 | 0.00 | 0.00 | 31 | 1013.6 |
| 20260502220023 | 15 | 72 | 1.6 | 1.6 | 0.00 | 0.00 | 0.00 | 31 | 1013.8 |
| 20260502215520 | 15 | 255 | 4.8 | 6.4 | 0.00 | 0.00 | 0.00 | 31 | 1013.7 |
| 20260502215017 | 15 | 270 | 3.2 | 3.2 | 0.00 | 0.00 | 0.00 | 30 | 1013.7 |
| 20260502214514 | 15 | 277 | 3.2 | 4.8 | 0.00 | 0.00 | 0.00 | 30 | 1013.7 |
| 20260502214012 | 15 | 157 | 1.6 | 3.2 | 0.00 | 0.00 | 0.00 | 31 | 1013.7 |
| 20260502213508 | 16 | 252 | 4.8 | 6.4 | 0.00 | 0.00 | 0.00 | 29 | 1013.8 |
| 20260502213006 | 16 | 267 | 6.4 | 9.7 | 0.00 | 0.00 | 0.00 | 30 | 1013.9 |
| 20260502212505 | 16 | 47 | 1.6 | 3.2 | 0.00 | 0.00 | 0.00 | 31 | 1013.8 |
| 20260502212001 | 16 | 349 | 6.4 | 9.7 | 0.00 | 0.00 | 0.00 | 31 | 1014.1 |
| 20260502211457 | 16 | 162 | 3.2 | 4.8 | 0.00 | 0.00 | 0.00 | 30 | 1014.1 |
| 20260502210955 | 17 | 144 | 1.6 | 3.2 | 0.00 | 0.00 | 0.00 | 34 | 1014.0 |
| 20260502210451 | 17 | 111 | 1.6 | 1.6 | 0.00 | 0.00 | 0.00 | 28 | 1014.1 |
| 20260502205949 | 15 | 209 | 1.6 | 1.6 | 0.00 | 0.00 | 0.00 | 30 | 1014.2 |
| 20260502205444 | 15 | 145 | 8.0 | 11.3 | 0.00 | 0.00 | 0.00 | 30 | 1014.4 |
| 20260502204942 | 16 | 160 | 1.6 | 3.2 | 0.00 | 0.00 | 0.00 | 31 | 1014.3 |
| 20260502204439 | 16 | 227 | 0.0 | 0.0 | 0.00 | 0.00 | 0.00 | 30 | 1014.2 |
| 20260502203937 | 15 | 89 | 3.2 | 4.8 | 0.00 | 0.00 | 0.00 | 32 | 1014.5 |
| 20260502203434 | 15 | 204 | 1.6 | 1.6 | 0.00 | 0.00 | 0.00 | 33 | 1014.5 |
| 20260502202930 | 14 | 129 | 1.6 | 1.6 | 0.00 | 0.00 | 0.00 | 31 | 1014.6 |
| 20260502202427 | 15 | 154 | 8.0 | 9.7 | 0.00 | 0.00 | 0.00 | 32 | 1014.6 |
| 20260502201925 | 15 | 255 | 8.0 | 12.9 | 0.00 | 0.00 | 0.00 | 30 | 1014.7 |
| 20260502201421 | 15 | 276 | 11.3 | 12.9 | 0.00 | 0.00 | 0.00 | 29 | 1014.9 |
| 20260502200918 | 16 | 233 | 1.6 | 3.2 | 0.00 | 0.00 | 0.00 | 30 | 1014.6 |
| 20260502200413 | 16 | 10 | 6.4 | 6.4 | 0.00 | 0.00 | 0.00 | 29 | 1014.8 |
| 20260502195911 | 15 | 280 | 0.0 | 1.6 | 0.00 | 0.00 | 0.00 | 29 | 1014.9 |
| 20260502195408 | 15 | 279 | 8.0 | 11.3 | 0.00 | 0.00 | 0.00 | 30 | 1015.1 |
| 20260502194905 | 15 | 298 | 6.4 | 11.3 | 0.00 | 0.00 | 0.00 | 30 | 1015.0 |
| 20260502194401 | 14 | 358 | 3.2 | 6.4 | 0.00 | 0.00 | 0.00 | 32 | 1015.1 |
| 20260502193857 | 16 | 286 | 3.2 | 4.8 | 0.00 | 0.00 | 0.00 | 30 | 1015.3 |
| 20260502193355 | 14 | 59 | 1.6 | 3.2 | 0.00 | 0.00 | 0.00 | 32 | 1015.5 |
| 20260502192850 | 15 | 338 | 6.4 | 6.4 | 0.00 | 0.00 | 0.00 | 32 | 1015.3 |
| 20260502192347 | 15 | 312 | 3.2 | 3.2 | 0.00 | 0.00 | 0.00 | 30 | 1015.4 |
| 20260502191844 | 15 | 128 | 1.6 | 1.6 | 0.00 | 0.00 | 0.00 | 33 | 1015.6 |
| 20260502191342 | 16 | 268 | 8.0 | 11.3 | 0.00 | 0.00 | 0.00 | 28 | 1015.5 |
| 20260502190839 | 15 | 223 | 12.9 | 16.1 | 0.00 | 0.00 | 0.00 | 29 | 1015.6 |
| 20260502190337 | 15 | 31 | 3.2 | 4.8 | 0.00 | 0.00 | 0.00 | 31 | 1015.5 |
| 20260502185832 | 15 | 245 | 1.6 | 3.2 | 0.00 | 0.00 | 0.00 | 33 | 1015.8 |
| 20260502185328 | 15 | 214 | 1.6 | 1.6 | 0.00 | 0.00 | 0.00 | 32 | 1015.6 |
| 20260502184825 | 15 | 208 | 0.0 | 1.6 | 0.00 | 0.00 | 0.00 | 32 | 1016.0 |
| 20260502184321 | 15 | 231 | 1.6 | 3.2 | 0.00 | 0.00 | 0.00 | 32 | 1015.9 |
| 20260502183817 | 15 | 257 | 6.4 | 11.3 | 0.00 | 0.00 | 0.00 | 31 | 1015.9 |
| 20260502183314 | 13 | 111 | 3.2 | 4.8 | 0.00 | 0.00 | 0.00 | 31 | 1015.9 |
| 20260502182809 | 14 | 228 | 4.8 | 6.4 | 0.00 | 0.00 | 0.00 | 32 | 1016.3 |
| 20260502182305 | 13 | 247 | 4.8 | 6.4 | 0.00 | 0.00 | 0.00 | 33 | 1016.4 |
| 20260502181802 | 12 | 164 | 9.7 | 12.9 | 0.00 | 0.00 | 0.00 | 35 | 1016.3 |
| 20260502181301 | 13 | 96 | 3.2 | 4.8 | 0.00 | 0.00 | 0.00 | 35 | 1016.4 |
| 20260502180758 | 13 | 40 | 1.6 | 1.6 | 0.00 | 0.00 | 0.00 | 36 | 1016.3 |
| 20260502180255 | 14 | 191 | 1.6 | 3.2 | 0.00 | 0.00 | 0.00 | 34 | 1016.4 |
| 20260502170213 | 12 | 228 | 1.6 | 3.2 | 0.00 | 0.00 | 0.00 | 39 | 1016.9 |
| 20260502164200 | 13 | 192 | 1.6 | 3.2 | 0.00 | 0.00 | 0.00 | 40 | 1017.4 |
| 20260502163655 | 13 | 287 | 6.4 | 9.7 | 0.00 | 0.00 | 0.00 | 38 | 1017.1 |
| 20260502163153 | 12 | 242 | 8.0 | 9.7 | 0.00 | 0.00 | 0.00 | 41 | 1017.3 |
| 20260502162649 | 12 | 180 | 0.0 | 1.6 | 0.00 | 0.00 | 0.00 | 39 | 1017.3 |
| 20260502162146 | 13 | 16 | 3.2 | 3.2 | 0.00 | 0.00 | 0.00 | 39 | 1017.4 |
| 20260502161644 | 12 | 289 | 1.6 | 3.2 | 0.00 | 0.00 | 0.00 | 43 | 1017.3 |
| 20260502161140 | 13 | 225 | 3.2 | 4.8 | 0.00 | 0.00 | 0.00 | 43 | 1017.3 |
| 20260502160638 | 13 | 241 | 6.4 | 6.4 | 0.00 | 0.00 | 0.00 | 41 | 1017.7 |
| 20260502160137 | 12 | 299 | 3.2 | 4.8 | 0.00 | 0.00 | 0.00 | 42 | 1017.7 |
| 20260502152051 | 12 | 160 | 0.0 | 0.0 | 0.00 | 0.00 | 0.00 | 49 | 1018.2 |
| 20260502151548 | 11 | 326 | 4.8 | 4.8 | 0.00 | 0.00 | 0.00 | 45 | 1017.7 |
| 20260502151045 | 10 | 101 | 3.2 | 4.8 | 0.00 | 0.00 | 0.00 | 51 | 1017.8 |
| 20260502150543 | 10 | 270 | 4.8 | 6.4 | 0.00 | 0.00 | 0.00 | 53 | 1018.1 |
| 20260502130416 | 5 | 206 | 1.6 | 3.2 | 0.00 | 0.00 | 0.00 | 73 | 1018.9 |
| 20260502123358 | 4 | 207 | 1.6 | 1.6 | 0.00 | 0.00 | 0.00 | 77 | 1018.6 |
| 20260502122850 | 4 | 138 | 0.0 | 1.6 | 0.00 | 0.00 | 0.00 | 77 | 1018.6 |
| 20260502122346 | 4 | 134 | 0.0 | 0.0 | 0.00 | 0.00 | 0.00 | 79 | 1018.4 |
| 20260502121845 | 3 | 157 | 0.0 | 1.6 | 0.00 | 0.00 | 0.00 | 80 | 1018.3 |
| 20260502121342 | 3 | 33 | 1.6 | 3.2 | 0.00 | 0.00 | 0.00 | 79 | 1018.6 |
| 20260502120839 | 3 | 176 | 1.6 | 1.6 | 0.00 | 0.00 | 0.00 | 81 | 1018.5 |
| 20260502120335 | 3 | 264 | 1.6 | 1.6 | 0.00 | 0.00 | 0.00 | 83 | 1018.3 |
| 20260502115833 | 2 | 122 | 0.0 | 0.0 | 0.00 | 0.00 | 0.00 | 86 | 1018.6 |
| 20260502115330 | 1 | 162 | 0.0 | 0.0 | 0.00 | 0.00 | 0.00 | 90 | 1018.4 |
| 20260502114826 | 0 | 171 | 0.0 | 0.0 | 0.00 | 0.00 | 0.00 | 90 | 1018.3 |
| 20260502114323 | 0 | 171 | 0.0 | 0.0 | 0.00 | 0.00 | 0.00 | 90 | 1018.3 |
| 20260502113820 | 0 | 171 | 0.0 | 0.0 | 0.00 | 0.00 | 0.00 | 90 | 1018.2 |
| 20260502113317 | 0 | 157 | 0.0 | 0.0 | 0.00 | 0.00 | 0.00 | 90 | 1018.2 |
| 20260502112816 | 0 | 202 | 0.0 | 0.0 | 0.00 | 0.00 | 0.00 | 90 | 1018.3 |
| 20260502112312 | 0 | 204 | 0.0 | 0.0 | 0.00 | 0.00 | 0.00 | 90 | 1018.2 |
| 20260502111810 | 0 | 205 | 0.0 | 0.0 | 0.00 | 0.00 | 0.00 | 91 | 1018.0 |
| 20260502111307 | 0 | 205 | 0.0 | 0.0 | 0.00 | 0.00 | 0.00 | 92 | 1018.1 |
| 20260502110805 | 0 | 206 | 0.0 | 0.0 | 0.00 | 0.00 | 0.00 | 92 | 1018.1 |
| 20260502110303 | 0 | 207 | 0.0 | 0.0 | 0.00 | 0.00 | 0.00 | 93 | 1018.1 |
| 20260502105800 | 0 | 196 | 0.0 | 0.0 | 0.00 | 0.00 | 0.00 | 93 | 1018.0 |
| 20260502105256 | -1 | 182 | 0.0 | 0.0 | 0.00 | 0.00 | 0.00 | 92 | 1018.2 |
| 20260502104754 | 0 | 182 | 0.0 | 0.0 | 0.00 | 0.00 | 0.00 | 92 | 1018.1 |
| 20260502104251 | 0 | 189 | 0.0 | 0.0 | 0.00 | 0.00 | 0.00 | 91 | 1018.1 |
| 20260502103749 | 0 | 189 | 0.0 | 0.0 | 0.00 | 0.00 | 0.00 | 92 | 1017.9 |
| 20260502103246 | 0 | 188 | 0.0 | 0.0 | 0.00 | 0.00 | 0.00 | 93 | 1018.0 |
| 20260502102743 | -1 | 187 | 0.0 | 0.0 | 0.00 | 0.00 | 0.00 | 93 | 1017.9 |
| 20260502102239 | -1 | 187 | 0.0 | 0.0 | 0.00 | 0.00 | 0.00 | 91 | 1018.1 |
| 20260502101738 | -1 | 188 | 0.0 | 0.0 | 0.00 | 0.00 | 0.00 | 92 | 1017.9 |
| 20260502101236 | 0 | 190 | 0.0 | 0.0 | 0.00 | 0.00 | 0.00 | 90 | 1018.0 |
| 20260502100733 | 0 | 205 | 0.0 | 0.0 | 0.00 | 0.00 | 0.00 | 91 | 1018.1 |
| 20260502100232 | 0 | 205 | 0.0 | 0.0 | 0.00 | 0.00 | 0.00 | 91 | 1017.7 |
| 20260502091206 | -1 | 170 | 0.0 | 0.0 | 0.00 | 0.00 | 0.00 | 90 | 1017.9 |
| 20260502090703 | -1 | 170 | 0.0 | 0.0 | 0.00 | 0.00 | 0.00 | 90 | 1017.9 |
| 20260502090200 | -1 | 170 | 0.0 | 0.0 | 0.00 | 0.00 | 0.00 | 90 | 1017.7 |